User: anonymous   Login
Location: NJAA Observatory
(40.6819°N, 74.8979°W)
Time: 21:58:02
(UTC-05:00)
Language:

ATLAS CENTAUR R/B - Orbit

View from above orbital plane
View from above orbital plane
View from above satellite
View from above satellite

Ground track
Ground track

The orbit data is extracted from the following two-line orbital elements,

1 28385U 04034B   14349.71445421 0.00055000  00000-0  21968-2 0    07
2 28385  57.3691 306.5943 4029226  24.9804 350.1148  7.42249496    00
Epoch (UTC): 15 December 2014 17:08:48
Eccentricity: 0.4029226
inclination: 57.3691°
perigee height: 250 km
apogee height: 9196 km
right ascension of ascending node: 306.5943°
argument of perigee: 24.9804°
revolutions per day: 7.42249496
mean anomaly at epoch: 350.1148°
orbit number at epoch: 0

The dashed part of the orbit path shows where the satellite is in the earth's shadow,  

DLR